Location: Newark
(16.3678°N, 77.8722°E)
Time: 04:32:45
(UTC+00:00)

S-56A Canister/Altair - Pass Details

Date: 14 December 2019
Orbit: 634 x 2498 km, 38.9° (Epoch: 22 January)

Event Time Altitude Azimuth Distance (km) Brightness Sun altitude
Rises 03:44:54 0° 262° (W) 5,052 11.4 31.2°
Reaches altitude 10° 03:48:11 10° 269° (W) 4,295 11.0 31.8°
Maximum altitude 03:59:38 42° 337° (NNW) 3,022 10.5 33.8°
Drops below altitude 10° 04:13:36 10° 44° (NE) 5,158 11.8 36.2°
Sets 04:18:02 0° 51° (NE) 6,127 12.2 36.9°
